Spokane, WA
on Friday, February 1, 2013

Friday
Previous Day Next Day
Daily Summary
 ActualAverageRecord
Temperature
Mean Temperature °F 31°F  
Max Temperature 39°F 37°F 57°F (1934)
Min Temperature 24°F 26°F -22°F (1996)
Degree Days
Heating Degree Days 33 34  
Month to date heating degree days 33 34  
Since 1 July heating degree days 3701 3967  
Cooling Degree Days 0 0  
Month to date cooling degree days 0 0  
Year to date cooling degree days 0 0  
Moisture
Dew Point 29°F   
Average Humidity 88    
Maximum Humidity 100    
Minimum Humidity 76    
Precipitation
Precipitation 0.00 in 0.04 in 1.10 in (1927)
Month to date precipitation 0.00 0.04  
Year to date precipitation 1.63 1.83  
Snow
Snow 0.00 in 0.30 in 5.20 in (1927)
Month to date snowfall 0.0 0.3  
Since 1 July snowfall 38.2 33.8  
Snow Depth T in   
Wind
Wind Speed 3 mph   
Max Wind Speed 12 mph   
Max Gust Speed 14 mph   
Visibility 4 miles   
Events Fog   

Key: T is trace of precipitation, MM is missing value
Source: NWS Daily Summary
Time(PST)TemperatureDew PointHumidity Pressure Visibility Wind DirectionWind SpeedGust SpeedPrecipitationEvents Conditions
12:15 AM 33.8°F 33.8°F 100% 30.17 in 10.0 miles SW 4.6 mph - N/A   Overcast
12:53 AM 33.1°F 30.9°F 92% 30.22 in 7.0 miles SW 10.4 mph - N/A   Mostly Cloudy
1:53 AM 33.1°F 32.0°F 96% 30.24 in 7.0 miles SW 8.1 mph - N/A   Mostly Cloudy
2:32 AM 32.0°F 32.0°F 100% 30.20 in 5.0 miles Calm Calm - N/A   Overcast
2:53 AM 32.0°F 30.9°F 96% 30.25 in 2.5 miles SSW 6.9 mph - N/A   Overcast
3:31 AM 30.2°F 30.2°F 100% 30.21 in 0.5 miles Variable 3.5 mph - N/A Fog Light Freezing Fog
3:53 AM 30.9°F 30.0°F 96% 30.27 in 0.5 miles Calm Calm - N/A Fog Light Freezing Fog
4:30 AM 30.2°F 30.2°F 100% 30.21 in 0.1 miles WSW 3.5 mph - N/A Fog Light Freezing Fog
4:53 AM 30.9°F 30.0°F 96% 30.28 in 0.2 miles SW 4.6 mph - N/A Fog Light Freezing Fog
5:53 AM 30.9°F 28.9°F 92% 30.30 in 0.5 miles SSW 6.9 mph - N/A Fog Light Freezing Fog
6:53 AM 30.9°F 30.0°F 96% 30.31 in 0.5 miles Calm Calm - N/A Fog Light Freezing Fog
7:53 AM 30.9°F 30.0°F 96% 30.33 in 0.2 miles SSW 4.6 mph - N/A Fog Light Freezing Fog
8:53 AM 32.0°F 30.9°F 96% 30.35 in 0.5 miles South 4.6 mph - N/A Fog Fog
9:53 AM 32.0°F 30.9°F 96% 30.36 in 0.5 miles South 6.9 mph - N/A Fog Fog
10:53 AM 32.0°F 32.0°F 100% 30.38 in 0.5 miles South 6.9 mph - N/A Fog Fog
11:11 AM 32.0°F 32.0°F 100% 30.33 in 1.0 miles South 5.8 mph - N/A   Overcast
11:53 AM 33.1°F 32.0°F 96% 30.39 in 3.0 miles South 4.6 mph - N/A   Overcast
12:16 PM 33.8°F 32.0°F 93% 30.34 in 8.0 miles SSE 4.6 mph - N/A   Overcast
12:53 PM 34.0°F 30.9°F 89% 30.40 in 10.0 miles South 6.9 mph - N/A   Overcast
1:53 PM 36.0°F 32.0°F 86% 30.40 in 10.0 miles Calm Calm - N/A   Mostly Cloudy
2:53 PM 37.9°F 32.0°F 79% 30.40 in 10.0 miles South 3.5 mph - N/A   Mostly Cloudy
3:53 PM 37.9°F 32.0°F 79% 30.41 in 10.0 miles WSW 5.8 mph - N/A   Mostly Cloudy
4:53 PM 37.0°F 30.9°F 79% 30.42 in 10.0 miles Calm Calm - N/A   Mostly Cloudy
5:53 PM 32.0°F 28.9°F 88% 30.43 in 10.0 miles Calm Calm - N/A   Scattered Clouds
6:53 PM 32.0°F 28.9°F 88% 30.44 in 9.0 miles Calm Calm - N/A   Scattered Clouds
7:44 PM 30.2°F 28.4°F 93% 30.37 in 1.0 miles Calm Calm - N/A   Scattered Clouds
7:53 PM 28.0°F 27.0°F 96% 30.45 in 0.2 miles Calm Calm - N/A Fog Light Freezing Fog
8:02 PM 28.4°F 26.6°F 93% 30.38 in 0.2 miles NNE 3.5 mph - N/A Fog Light Freezing Fog
8:08 PM 26.6°F 26.6°F 100% 30.38 in 0.5 miles North 3.5 mph - N/A Fog Light Freezing Fog
8:28 PM 26.6°F 26.6°F 100% 30.39 in 0.2 miles Calm Calm - N/A Fog Light Freezing Fog
8:53 PM 27.0°F 26.1°F 96% 30.47 in 0.1 miles Calm Calm - N/A Fog Light Freezing Fog
9:41 PM 26.6°F 24.8°F 93% 30.41 in 0.2 miles Calm Calm - N/A Fog Light Freezing Fog
9:53 PM 25.0°F 24.1°F 96% 30.49 in 0.2 miles Calm Calm - N/A Fog Light Freezing Fog
10:00 PM 26.6°F 24.8°F 93% 30.41 in 0.2 miles Calm Calm - N/A Fog Light Freezing Fog
10:53 PM 26.1°F 24.1°F 92% 30.49 in 0.1 miles Calm Calm - N/A Fog Light Freezing Fog
11:18 PM 24.8°F 23.0°F 93% 30.41 in 0.5 miles Calm Calm - N/A Fog Light Freezing Fog
11:53 PM 24.1°F 21.9°F 91% 30.49 in 1.0 miles Calm Calm - N/A   Partly Cloudy
Moon Phase
Feb. 01 Feb. 03 Feb. 10 Feb. 17 Feb. 25
Sunrise:07:16 AM (PST) Moon Rise:11:36 PM (PST)2/1
Sunset:04:51 PM (PST) Moon Set:09:23 AM (PST)2/1

Copyright © 2014 The Weather Underground, Inc.